Regional Weather Roundup
Issued by NWS Jackson, KY

Home | Current Version | Previous Version | Text Only | Print | Product List | Glossary On
Versions: 1 2 3 4 5 6 7 8 9 10 11 12 13 14 15 16 17 18 19 20 21 22 23 24 25 26 27
000
ASUS43 KJKL 242310
RWRJKL

EAST KENTUCKY HOURLY WEATHER ROUNDUP
NATIONAL WEATHER SERVICE JACKSON KY
700 PM EDT FRI JUN 24 2022

NOTE: "FAIR" INDICATES FEW OR NO CLOUDS BELOW 12,000 FEET WITH
NO SIGNIFICANT WEATHER AND/OR OBSTRUCTIONS TO VISIBILITY.

* THESE REPORTS ARE NOT UNDER NWS QUALITY CONTROL AND MAY NOT
  REPORT WEATHER SUCH AS PRECIPITATION AND FOG.

KYZ079-080-083-085-087-088-110-112-115-119-120-250000
...EASTERN KENTUCKY...

CITY           SKY/WX    TMP DP  RH WIND       PRES   REMARKS
JACKSON        MOSUNNY   84  61  45 CALM      30.04R
LONDON         MOSUNNY   89  56  32 VRB6      30.01R
SOMERSET*      PTSUNNY   88  61  40 N7        29.98R
MONTICELLO*    SUNNY     88  63  43 N12       30.01R
WILLIAMSBURG*  FAIR      90  59  35 N7        30.00R
MIDDLESBORO*   MOSUNNY   87  63  44 N3        30.00R
HARLAN APT*    CLEAR     87  59  38 NE3       30.03R
PIKE CO APT*   FAIR      83  60  44 N8        30.05R
BIG SANDY APT* CLEAR     85  61  44 NE5       30.04S
MOREHEAD APT*  CLEAR     84  55  37 N9        30.06R HAZE
ASHLAND*       SUNNY     85  59  41 CALM      30.04S
$$

KYZ035-036-041-042-044-050-067-078-099-250000
...CENTRAL KENTUCKY...

CITY           SKY/WX    TMP DP  RH WIND       PRES   REMARKS
MT STERLING*   MOSUNNY   84  55  37 NE7       30.05S
FLEMING/MASON* MOSUNNY   84  52  33 CALM      30.06S
RICHMOND*      FAIR      90  61  37 NE9       30.03S
LEXINGTON      PTSUNNY   85  57  38 NE9       30.03S
FRANKFORT      CLOUDY    86  59  39 N5        30.02S
LOUISVILLE     PTSUNNY   89  56  32 NE9       29.99F
LEBANON*       FAIR      86  57  37 N7        30.01S
GLASGOW*       SUNNY     91  62  37 N5        29.98S HX  91
BOWLING GREEN  MOSUNNY   92  59  33 E7        29.97S HX  91
$$

KYZ091>093-OHZ055-061-077-WVZ005-015-034-035-042-250000
...SOUTHERN OHIO/WEST VIRGINIA...

CITY           SKY/WX    TMP DP  RH WIND       PRES   REMARKS
COVINGTON      PTSUNNY   85  56  37 E7        30.03F
COLUMBUS       MOSUNNY   86  51  29 N5        30.04S
DAYTON         MOSUNNY   84  52  33 E6        30.05F
WILMINGTON     MOSUNNY   86  52  30 CALM      30.04F
HUNTINGTON     SUNNY     85  50  29 N6        30.04S
CHARLESTON     MOSUNNY   85  52  32 N3        30.04S
BECKLEY        SUNNY     79  59  50 N10       30.11S
BLUEFIELD      SUNNY     79  58  48 N6        30.13R
LOGAN CO APT*  FAIR      82  61  47 N5        30.07R
$$

VAZ002-007-008-TNZ017-027-036-066-071-250000
...SOUTHWEST VIRGINIA/EAST TENNESSEE...

CITY           SKY/WX    TMP DP  RH WIND       PRES   REMARKS
WISE*          SUNNY     79  61  53 N5        30.12S
JONESVILLE*    FAIR      90  61  37 VRB6      30.01S
ABINGDON*      MOSUNNY   87  62  42 N3        30.06S
BRISTOL        PTSUNNY   88  58  36 CALM      30.01R
MORRISTOWN*    CLEAR     90  61  37 N5        29.98R
SEVIERVILLE*   MOCLDY    90  68  48 VRB5      29.97S HX  93
KNOXVILLE      MOSUNNY   88  69  53 S12       29.96S HX  92
LAFOLLETTE*    CLEAR     90  63  40 NE6       30.02R HX  90
OAK RIDGE      MOSUNNY   92  65  40 CALM      29.97S HX  94
CROSSVILLE     SUNNY     85  68  56 NW5       30.03S
NASHVILLE      MOSUNNY   96  47  18 N5        29.95F HX  92
$$

...KEY TO REMARKS...
VSB - VISIBILITY IN MILES
WCI - WIND CHILL INDEX
HX  - HEAT INDEX

$$



USA.gov is the U.S. government's official web portal to all federal, state and local government web resources and services.